This demonstration page uses our WeatherBlox Daily Observations layout. Learn more.

Left ArrowRight Arrow

Hourly Observations for November 1, 2018

Temp ( °F °C ) Dew Point ( °F °C ) Humidity (%) Winds ( mph kmh ) Pressure ( in mb ) Visibility ( mi km ) Precip ( " mm )
12:34 am 00:34 Cloudy with Light Rain 55 12.8 53 11.7 93 93 N N/A 29.85 1011 3 4 N/A
12:43 am 00:43 Cloudy with Light Rain 54 12.2 53 11.7 97 97 SSW 5 7 29.85 1011 3 5 0.01 0.25
12:50 am 00:50 Cloudy with Light Rain 54 12 54 12 100 100 N N/A 29.85 1011 3 4 0.01 0.25
12:53 am 00:53 Cloudy with Light Rain 54 12.2 53 11.7 97 97 SSW 5 7 29.86 1011 3 4 0.01 0.25
1:01 am 01:01 Cloudy with Rain 54 12.2 53 11.7 97 97 ENE 5 7 29.85 1011 3 5 N/A
1:53 am 01:53 Cloudy with Rain 55 12.8 53 11.7 93 93 N N/A 29.84 1011 3 5 0.11 2.79
2:02 am 02:02 Cloudy with Heavy Rain 54 12.2 53 11.7 97 97 NW 7 11 29.85 1011 3 4 0.02 0.51
2:16 am 02:16 Cloudy with Rain 54 12.2 53 11.7 97 97 NNW 8 13 29.85 1011 3 5 0.06 1.52
2:26 am 02:26 Cloudy with Rain 54 12.2 53 11.7 97 97 N 10 17 29.83 1010 3 5 0.09 2.29
2:53 am 02:53 Cloudy with Rain 54 12.2 52 11.1 93 93 N 9 15 29.83 1010 5 8 0.13 3.30
3:16 am 03:16 Cloudy with Rain 53 11.7 51 10.6 93 93 N 8 13 29.88 1012 6 10 0.05 1.27
3:23 am 03:23 Cloudy with Light Rain 53 11.7 50 10 89 89 VRB 7 11 29.83 1010 7 11 0.05 1.27
3:33 am 03:33 Cloudy with Light Rain 52 11.1 50 10 93 93 N 10 17 29.85 1011 7 11 0.06 1.52
3:53 am 03:53 Cloudy with Rain 52 11.1 50 10 93 93 NNE 14 22 29.82 1010 7 11 0.08 2.03
4:53 am 04:53 Cloudy with Heavy Rain 51 10.6 49 9.4 92 92 NNE 10 17 29.80 1009 3 5 0.16 4.06
5:05 am 05:05 Cloudy with Rain 51 10.6 49 9.4 92 92 NNE 10 17 29.83 1010 4 6 0.03 0.76
5:16 am 05:16 Cloudy with Heavy Rain 51 10.6 49 9.4 92 92 NE 14 22 29.83 1010 3 5 0.09 2.29
5:53 am 05:53 Cloudy with Light Rain 50 10 48 8.9 93 93 NNE 17 28 29.79 1009 6 10 0.16 4.06
6:01 am 06:01 Cloudy with Light Rain 50 10 47 8.3 89 89 VRB 7 11 29.83 1010 7 11 N/A
6:53 am 06:53 Cloudy with Rain 50 10 47 8.3 89 89 undefined N/A 29.78 1008 5 8 0.12 3.05
7:29 am 07:29 Cloudy with Rain 49 9.4 46 7.8 90 90 N 10 17 29.80 1009 7 11 0.04 1.02
7:53 am 07:53 Cloudy with Light Rain 48 8.9 46 7.8 93 93 NNE 10 17 29.76 1008 8 13 0.04 1.02
8:19 am 08:19 Cloudy with Light Rain 48 8.9 45 7.2 89 89 NNE 10 17 29.77 1008 9 14 0.01 0.25
8:53 am 08:53 Cloudy with Rain 47 8.3 45 7.2 93 93 N 6 9 29.75 1008 5 8 0.07 1.78
9:53 am 09:53 Cloudy with Light Rain 48 8.9 46 7.8 93 93 N N/A 29.73 1007 4 6 0.13 3.30
10:51 am 10:51 Cloudy with Rain 48 9 46 8 94 94 VRB 6 9 29.71 1006 4 6 0.09 2.29
10:53 am 10:53 Cloudy with Rain 49 9.4 46 7.8 90 90 E 5 7 29.69 1006 4 6 0.09 2.29
11:05 am 11:05 Cloudy with Heavy Rain 49 9.4 46 7.8 90 90 NE 7 11 29.71 1006 3 4 0.03 0.76
11:27 am 11:27 Cloudy with Rain 49 9.4 47 8.3 93 93 ENE 6 9 29.68 1005 3 5 0.09 2.29
11:38 am 11:38 Cloudy with Heavy Rain 49 9.4 47 8.3 93 93 VRB 3 6 29.68 1005 3 4 0.13 3.30
11:46 am 11:46 Cloudy with Heavy Rain 49 9.4 47 8.3 93 93 NNE 7 11 29.68 1005 2 2 0.17 4.32
11:51 am 11:51 Cloudy with Rain 48 9 46 8 94 94 NNE 9 15 29.65 1004 2 3 0.18 4.57
11:53 am 11:53 Cloudy with Rain 49 9.4 47 8.3 93 93 NNE 9 15 29.63 1003 3 4 0.18 4.57
12:41 pm 12:41 Cloudy with Rain 50 10 48 8.9 93 93 NNE 8 13 29.59 1002 4 6 0.13 3.30
12:53 pm 12:53 Cloudy with Heavy Rain 50 10 48 8.9 93 93 NNE 10 17 29.59 1002 3 5 0.16 4.06
1:12 pm 13:12 Cloudy with Heavy Rain 50 10 48 8.9 93 93 N N/A 29.59 1002 2 3 0.05 1.27
1:29 pm 13:29 Cloudy with Heavy Rain 50 10 48 8.9 93 93 VRB 5 7 29.59 1002 2 3 0.09 2.29
1:37 pm 13:37 Cloudy with Rain 50 10 48 8.9 93 93 N 5 7 29.59 1002 2 2 0.11 2.79
1:40 pm 13:40 Cloudy with Light Rain 50 10 48 8.9 93 93 N N/A 29.56 1001 2 3 0.11 2.79
1:50 pm 13:50 Cloudy with Light Rain 50 10 48 9 94 94 N 9 15 29.56 1001 3 5 0.11 2.79
1:53 pm 13:53 Cloudy with Light Rain 50 10 48 8.9 93 93 NNE 12 19 29.56 1001 4 6 0.12 3.05
2:46 pm 14:46 Cloudy with Light Rain 50 10 48 8.9 93 93 N N/A 29.56 1001 2 3 0.01 0.25
2:53 pm 14:53 Cloudy with Light Rain 50 10 48 8.9 93 93 VRB 3 6 29.54 1001 2 3 0.02 0.51
3:03 pm 15:03 Cloudy with Light Rain 50 10 48 8.9 93 93 N N/A 29.53 1000 2 3 N/A
3:33 pm 15:33 Cloudy with Light Rain 50 10 48 8.9 93 93 NNE 8 13 29.53 1000 4 6 0.01 0.25
3:47 pm 15:47 Cloudy with Rain 50 10 48 9 94 94 NW 3 6 29.53 1000 2 3 0.02 0.51
3:53 pm 15:53 Cloudy with Light Rain 50 10 48 8.9 93 93 N 8 13 29.52 1000 2 2 0.03 0.76
4:01 pm 16:01 Cloudy with Rain 49 9.4 47 8.3 93 93 N 12 19 29.53 1000 2 3 0.01 0.25
4:08 pm 16:08 Cloudy with Rain 49 9.4 47 8.3 93 93 NNW 8 13 29.53 1000 2 3 0.02 0.51
4:27 pm 16:27 Cloudy with Light Rain 49 9.4 47 8.3 93 93 N 8 13 29.53 1000 2 3 0.05 1.27
4:53 pm 16:53 Cloudy with Light Rain 49 9.4 46 7.8 90 90 N 7 11 29.52 1000 3 5 0.07 1.78
5:20 pm 17:20 Cloudy with Light Rain 48 8.9 46 7.8 93 93 N N/A 29.53 1000 2 3 0.01 0.25
5:37 pm 17:37 Cloudy with Light Rain 48 8.9 46 7.8 93 93 NNW 6 9 29.53 1000 4 6 0.02 0.51
5:53 pm 17:53 Cloudy with Light Rain 48 8.9 46 7.8 93 93 N 7 11 29.53 1000 3 4 0.02 0.51
6:08 pm 18:08 Cloudy with Light Rain 48 8.9 46 7.8 93 93 NNE 6 9 29.53 1000 4 6 0.01 0.25
6:15 pm 18:15 Cloudy with Light Rain 48 8.9 46 7.8 93 93 N N/A 29.53 1000 3 5 0.01 0.25
6:53 pm 18:53 Cloudy with Light Rain 48 8.9 45 7.2 89 89 N 5 7 29.51 999 3 5 0.03 0.76
7:40 pm 19:40 Cloudy with Light Rain 47 8.3 45 7.2 93 93 NNE 6 9 29.53 1000 6 10 0.05 1.27
7:53 pm 19:53 Cloudy with Rain 47 8.3 45 7.2 93 93 WNW 8 13 29.54 1000 4 6 0.08 2.03
7:56 pm 19:56 Cloudy with Rain 47 8.3 45 7.2 93 93 VRB 3 6 29.56 1001 2 3 0.04 1.02
7:59 pm 19:59 Cloudy with Heavy Rain 47 8.3 45 7.2 93 93 W 7 11 29.56 1001 2 2 0.09 2.29
8:13 pm 20:13 Cloudy with Heavy Rain 47 8.3 45 7.2 93 93 VRB 3 6 29.56 1001 2 3 0.19 4.83
8:19 pm 20:19 Cloudy with Rain 47 8.3 45 7.2 93 93 WNW 6 9 29.56 1001 3 5 0.19 4.83
8:24 pm 20:24 Mostly Cloudy with Rain 47 8.3 45 7.2 93 93 WNW 3 6 29.59 1002 4 6 0.21 5.33
8:53 pm 20:53 Cloudy with Light Rain 47 8.3 45 7.2 93 93 NNW 6 9 29.55 1001 10 16 0.24 6.10
9:53 pm 21:53 Cloudy 48 8.9 45 7.2 89 89 W 7 11 29.57 1001 10 16 N/A
10:04 pm 22:04 Cloudy with Mist and Fog 48 8.9 46 7.8 93 93 WSW 5 7 29.59 1002 6 10 N/A
10:53 pm 22:53 Cloudy with Mist and Fog 48 8.9 46 7.8 93 93 SW 5 7 29.60 1002 6 10 N/A
11:23 pm 23:23 Cloudy with Light Rain 48 8.9 46 7.8 93 93 SSW 5 7 29.65 1004 3 5 N/A
11:53 pm 23:53 Cloudy with Mist and Fog 48 8.9 46 7.8 93 93 SW 3 6 29.62 1003 3 5 N/A

Powered by AerisWeather